Content
SEND FEEDBACK

Daily
Averages
Monthly
Summary
United States of America

HAZELWOOD, MISSOURI


Home > North America > United States > Missouri
Elevation: 570 feet     Latitude: 38 45N     Longitude: 090 22W

WEATHER
 
SELECT A DAY
Number of Records: 196,698;   Date Range: 1/1/95 - 9/22/14
 
SHARE

PRINT THIS DATA

[ ← Previous Day ]
WEATHER ALMANAC - MAY 5, 2013
[ Next Day → ]
[ °C ]   °F
Weather ElementAverageHighLow
Temperature52.4 °F61 °F (3:54 pm)41 °F (1:41 am)
Dewpoint49 °F55 °F (4:54 pm)39.2 °F (1:41 am)
Humidity88.6 %96 % (1:54 am)77 % (2:36 pm)
Barometer29.96 in30.00 in (1:54 am)29.90 in (3:54 pm)
Wind Speed4.8 mph8.1 mph (10:54 am)
Weather ElementAverage
Visibility8.1 mi
Wind DirectionSW (228.3 °)

Weather ElementTotal
Precipitation0.04 in
Heating Degree Days14 (Base 65)
Growing Degree Days1 (Base 50)
Averaged from 42 records on May 5, 2013
WEATHER CONDITIONS BREAKOUT
WIND DIRECTION BREAKOUT
WEATHER BY HOUR - MAY 5, 2013
[ °C ]   °F
Local TimeTemperatureDewpointHumidityBarometerVisibilityWind DirectionWind SpeedGust SpeedPrecipitationEventsConditions
1:41 AM41.0 °F39.2 °F93 %29.99 in2.5 miWSW (240°)3.5 mphClear
1:51 AM42.8 °F39.2 °F87 %29.99 in5.0 miCalmPartly Cloudy
1:54 AM42.1 °F41.0 °F96 %30.00 in5.0 miCalmPartly Cloudy
2:54 AM45.0 °F43.0 °F93 %29.99 in10.0 miCalmOvercast
3:02 AM44.6 °F42.8 °F93 %29.98 in10.0 miCalmOvercast
3:54 AM46.0 °F44.1 °F93 %29.99 in10.0 miCalmOvercast
4:11 AM46.4 °F44.6 °F93 %29.98 in10.0 miNW (310°)4.6 mphOvercast
4:54 AM46.9 °F44.1 °F90 %29.99 in10.0 miCalmOvercast
5:44 AM46.4 °F44.6 °F93 %29.98 in10.0 miWest (270°)3.5 mphOvercast
5:54 AM46.9 °F44.1 °F90 %29.99 in10.0 miWest (270°)3.5 mphOvercast
6:25 AM46.4 °F44.6 °F93 %29.98 in3.0 miWNW (290°)6.9 mphOvercast
6:37 AM46.4 °F44.6 °F93 %29.98 in3.0 miWest (280°)4.6 mphOvercast
6:44 AM46.4 °F44.6 °F93 %29.99 in3.0 miCalmOvercast
6:54 AM46.9 °F44.1 °F90 %29.99 in3.0 miWest (270°)3.5 mphOvercast
7:54 AM46.9 °F45.0 °F93 %29.99 in3.0 miWNW (290°)4.6 mph0.01 inOvercast
8:54 AM48.9 °F46.0 °F90 %29.99 in3.0 miWNW (300°)4.6 mph0.00 inOvercast
9:25 AM50.0 °F48.2 °F94 %29.98 in2.0 miNNW (330°)6.9 mph0.00 inRainLight Rain
9:47 AM51.8 °F48.2 °F88 %29.98 in5.0 miNorth (350°)5.8 mph0.01 inOvercast
9:54 AM51.1 °F48.9 °F92 %29.98 in8.0 miNorth (350°)5.8 mph0.01 inOvercast
10:54 AM55.0 °F51.1 °F86 %29.98 in10.0 miNorth (10°)8.1 mphOvercast
11:54 AM55.9 °F52.0 °F87 %29.96 in10.0 miNNW (340°)5.8 mphOvercast
12:01 PM55.4 °F51.8 °F88 %29.95 in10.0 miNNW (340°)6.9 mphOvercast
12:17 PM55.4 °F51.8 °F88 %29.95 in8.0 miNorth (350°)8.1 mphOvercast
12:24 PM55.4 °F51.8 °F88 %29.95 in5.0 miNNW (340°)8.1 mph0.00 inRainLight Rain
12:47 PM55.4 °F51.8 °F88 %29.94 in10.0 miNNW (340°)5.8 mph0.00 inOvercast
12:54 PM55.4 °F53.6 °F94 %29.94 in10.0 miNNW (330°)8.1 mphOvercast
1:14 PM55.4 °F51.8 °F88 %29.94 in10.0 miNNW (340°)5.8 mphOvercast
1:27 PM55.4 °F51.8 °F88 %29.94 in10.0 miNNW (330°)5.8 mphOvercast
1:54 PM59.0 °F54.0 °F83 %29.94 in10.0 miNNW (340°)6.9 mphOvercast
2:36 PM60.8 °F53.6 °F77 %29.92 in10.0 miNNW (340°)6.9 mph0.00 inRainLight Rain
2:54 PM60.1 °F53.1 °F78 %29.92 in10.0 miNorth (360°)5.8 mph0.00 inOvercast
3:54 PM61.0 °F54.0 °F78 %29.90 in10.0 miNNW (340°)6.9 mphOvercast
4:54 PM61.0 °F55.0 °F81 %29.90 in10.0 miNorth (360°)8.1 mph0.00 inOvercast
5:54 PM60.1 °F54.0 °F80 %29.91 in10.0 miNNE (20°)6.9 mph0.00 inRainLight Rain
6:54 PM60.1 °F53.1 °F78 %29.91 in10.0 miNE (40°)5.8 mph0.00 inOvercast
7:54 PM60.1 °F53.1 °F78 %29.93 in10.0 miNE (40°)5.8 mphOvercast
8:54 PM57.0 °F54.0 °F89 %29.94 in10.0 miNE (50°)6.9 mph0.00 inRainLight Rain
9:54 PM57.0 °F54.0 °F89 %29.95 in10.0 miNNE (30°)3.5 mph0.01 inOvercast
10:54 PM55.9 °F53.1 °F90 %29.94 in10.0 miNorth (360°)5.8 mph0.00 inRainLight Rain
11:01 PM55.4 °F53.6 °F94 %29.94 in10.0 miNorth (360°)4.6 mph0.00 inRainLight Rain
11:46 PM55.4 °F53.6 °F94 %29.94 in10.0 miNNW (340°)4.6 mph0.00 inMostly Cloudy
11:54 PM55.9 °F53.1 °F90 %29.94 in10.0 miNNW (340°)3.5 mph0.00 inOvercast
Hourly data recorded from KSUS, located miles away from Hazelwood, Missouri







STORIES FROM OUR PARTNERS